| time (UTC) | temp C | wind direction | speed KPH | gust KPH | rain 1hr cm | rain 24hr cm | rain mn cm | humidity % | barometer mb |
| 20260505113002 | 27 | 65 | 3.2 | 24.1 | 0.00 | 0.13 | 0.00 | 83 | 1019.2 |
| 20260505111559 | 27 | 84 | 4.8 | 16.1 | 0.00 | 0.13 | 0.00 | 84 | 1019.1 |
| 20260505110118 | 26 | 82 | 6.4 | 16.1 | 0.00 | 0.13 | 0.00 | 85 | 1018.9 |
| 20260505101555 | 26 | 86 | 3.2 | 12.9 | 0.00 | 0.13 | 0.00 | 85 | 1018.6 |
| 20260505100051 | 26 | 98 | 0.0 | 8.0 | 0.00 | 0.13 | 0.00 | 85 | 1018.4 |
| 20260505094606 | 26 | 140 | 0.0 | 16.1 | 0.00 | 0.13 | 0.00 | 85 | 1018.4 |
| 20260505093055 | 26 | 96 | 0.0 | 6.4 | 0.00 | 0.13 | 0.00 | 85 | 1018.2 |
| 20260505091547 | 26 | 132 | 0.0 | 9.7 | 0.00 | 0.13 | 0.00 | 85 | 1018.1 |
| 20260505090048 | 26 | 140 | 0.0 | 12.9 | 0.00 | 0.13 | 0.00 | 84 | 1017.8 |
| 20260505084553 | 26 | 155 | 0.0 | 6.4 | 0.00 | 0.13 | 0.00 | 84 | 1017.7 |
| 20260505083056 | 26 | 166 | 0.0 | 11.3 | 0.00 | 0.13 | 0.00 | 84 | 1017.5 |
| 20260505081555 | 26 | 225 | 3.2 | 12.9 | 0.00 | 0.13 | 0.00 | 84 | 1017.5 |
| 20260505080049 | 26 | 154 | 0.0 | 12.9 | 0.00 | 0.13 | 0.00 | 84 | 1017.4 |
| 20260505074542 | 26 | 120 | 0.0 | 16.1 | 0.00 | 0.13 | 0.00 | 84 | 1017.2 |
| 20260505073044 | 26 | 146 | 1.6 | 12.9 | 0.00 | 0.13 | 0.00 | 83 | 1017.2 |
| 20260505071547 | 26 | 75 | 1.6 | 14.5 | 0.00 | 0.13 | 0.00 | 83 | 1017.3 |
| 20260505070038 | 26 | 128 | 1.6 | 14.5 | 0.00 | 0.13 | 0.00 | 83 | 1017.3 |
| 20260505064537 | 26 | 72 | 3.2 | 14.5 | 0.00 | 0.13 | 0.00 | 83 | 1017.4 |
| 20260505063034 | 26 | 121 | 4.8 | 20.9 | 0.00 | 0.13 | 0.00 | 83 | 1017.5 |
| 20260505061534 | 26 | 82 | 6.4 | 16.1 | 0.00 | 0.13 | 0.00 | 84 | 1017.5 |
| 20260505060036 | 26 | 86 | 9.7 | 19.3 | 0.00 | 0.13 | 0.00 | 84 | 1017.6 |
| 20260505054530 | 26 | 184 | 4.8 | 22.5 | 0.00 | 0.13 | 0.00 | 84 | 1017.6 |
| 20260505053028 | 26 | 119 | 4.8 | 24.1 | 0.00 | 0.13 | 0.00 | 84 | 1017.8 |
| 20260505051527 | 26 | 143 | 6.4 | 24.1 | 0.00 | 0.13 | 0.00 | 84 | 1017.9 |
| 20260505041520 | 26 | 138 | 3.2 | 17.7 | 0.00 | 0.13 | 0.00 | 85 | 1018.3 |
| 20260505040018 | 26 | 188 | 0.0 | 11.3 | 0.00 | 0.13 | 0.00 | 86 | 1018.4 |
| 20260505034516 | 26 | 186 | 4.8 | 17.7 | 0.00 | 0.13 | 0.13 | 85 | 1018.4 |
| 20260505033022 | 26 | 227 | 0.0 | 11.3 | 0.00 | 0.13 | 0.13 | 85 | 1018.5 |
| 20260505031517 | 26 | 169 | 0.0 | 11.3 | 0.03 | 0.13 | 0.13 | 85 | 1018.8 |
| 20260505030015 | 26 | 178 | 3.2 | 11.3 | 0.03 | 0.13 | 0.13 | 84 | 1018.7 |
| 20260505024514 | 27 | 90 | 3.2 | 16.1 | 0.03 | 0.13 | 0.13 | 83 | 1018.8 |
| 20260505023014 | 27 | 219 | 1.6 | 9.7 | 0.00 | 0.10 | 0.10 | 82 | 1018.8 |
| 20260505021515 | 27 | 209 | 0.0 | 11.3 | 0.00 | 0.10 | 0.10 | 82 | 1018.8 |
| 20260505020017 | 27 | 237 | 0.0 | 12.9 | 0.00 | 0.10 | 0.10 | 81 | 1018.8 |
| 20260505014518 | 27 | 217 | 4.8 | 11.3 | 0.00 | 0.10 | 0.10 | 81 | 1018.7 |
| 20260505013011 | 27 | 129 | 0.0 | 4.8 | 0.00 | 0.10 | 0.10 | 81 | 1018.6 |
| 20260505011512 | 27 | 188 | 1.6 | 9.7 | 0.00 | 0.10 | 0.10 | 81 | 1018.7 |
| 20260505004515 | 27 | 217 | 3.2 | 14.5 | 0.00 | 0.10 | 0.10 | 80 | 1018.4 |
| 20260505003008 | 27 | 196 | 6.4 | 16.1 | 0.00 | 0.10 | 0.10 | 80 | 1017.9 |
| 20260505001509 | 27 | 211 | 3.2 | 16.1 | 0.00 | 0.10 | 0.10 | 80 | 1017.8 |
| 20260505000011 | 27 | 157 | 3.2 | 11.3 | 0.00 | 0.10 | 0.10 | 81 | 1017.6 |
| 20260504234507 | 27 | 223 | 1.6 | 14.5 | 0.00 | 0.10 | 0.10 | 80 | 1017.5 |
| 20260504233007 | 27 | 150 | 1.6 | 9.7 | 0.00 | 0.10 | 0.10 | 80 | 1017.4 |
| 20260504231506 | 27 | 175 | 1.6 | 11.3 | 0.00 | 0.10 | 0.10 | 80 | 1017.2 |
| 20260504230006 | 27 | 144 | 3.2 | 12.9 | 0.00 | 0.10 | 0.10 | 80 | 1017.2 |
| 20260504224505 | 27 | 146 | 4.8 | 12.9 | 0.00 | 0.10 | 0.10 | 80 | 1017.2 |
| 20260504223005 | 27 | 227 | 3.2 | 9.7 | 0.00 | 0.10 | 0.10 | 80 | 1016.9 |
| 20260504221505 | 27 | 207 | 0.0 | 16.1 | 0.00 | 0.10 | 0.10 | 80 | 1016.9 |
| 20260504220004 | 28 | 243 | 1.6 | 11.3 | 0.00 | 0.10 | 0.10 | 80 | 1016.6 |
| 20260504214503 | 28 | 159 | 4.8 | 16.1 | 0.00 | 0.10 | 0.10 | 79 | 1016.4 |
| 20260504213004 | 28 | 196 | 8.0 | 19.3 | 0.00 | 0.10 | 0.10 | 79 | 1016.1 |
| 20260504211506 | 28 | 134 | 3.2 | 14.5 | 0.00 | 0.10 | 0.10 | 78 | 1016.0 |
| 20260504210001 | 29 | 157 | 8.0 | 19.3 | 0.00 | 0.10 | 0.10 | 76 | 1016.0 |
| 20260504204625 | 30 | 84 | 6.4 | 20.9 | 0.00 | 0.10 | 0.10 | 76 | 1016.0 |
| 20260504203135 | 30 | 83 | 4.8 | 19.3 | 0.00 | 0.10 | 0.10 | 76 | 1015.9 |
| 20260504201559 | 30 | 69 | 8.0 | 16.1 | 0.00 | 0.10 | 0.10 | 77 | 1016.0 |
| 20260504200058 | 30 | 76 | 9.7 | 20.9 | 0.00 | 0.10 | 0.10 | 76 | 1016.1 |
| 20260504194556 | 31 | 44 | 8.0 | 20.9 | 0.00 | 0.10 | 0.10 | 75 | 1016.1 |
| 20260504193056 | 31 | 76 | 6.4 | 22.5 | 0.00 | 0.10 | 0.10 | 75 | 1016.3 |
| 20260504191558 | 31 | 86 | 8.0 | 24.1 | 0.00 | 0.10 | 0.10 | 74 | 1016.3 |
| 20260504190055 | 31 | 65 | 16.1 | 24.1 | 0.00 | 0.10 | 0.10 | 74 | 1016.6 |
| 20260504184554 | 31 | 63 | 14.5 | 22.5 | 0.00 | 0.10 | 0.10 | 74 | 1016.6 |
| 20260504183050 | 31 | 76 | 14.5 | 24.1 | 0.00 | 0.10 | 0.10 | 74 | 1016.9 |
| 20260504181550 | 31 | 82 | 11.3 | 22.5 | 0.00 | 0.10 | 0.10 | 74 | 1017.0 |
| 20260504180105 | 30 | 74 | 14.5 | 24.1 | 0.00 | 0.10 | 0.10 | 77 | 1017.0 |
| 20260504174548 | 30 | 60 | 6.4 | 24.1 | 0.00 | 0.10 | 0.10 | 79 | 1017.2 |
| 20260504173058 | 28 | 130 | 3.2 | 16.1 | 0.00 | 0.10 | 0.10 | 80 | 1017.5 |
| 20260504171548 | 28 | 159 | 6.4 | 16.1 | 0.00 | 0.10 | 0.10 | 80 | 1017.9 |